Location: Castelnau
(43.6639°N, 0.8431°W)
Time: 16:16:12
(UTC+00:00)

SL-23 DEB - Pass Details

Date: 13 January 2026
Orbit: 423 x 3435 km, 51.4° (Epoch: 11 February)

Event Time Altitude Azimuth Distance (km) Brightness Sun altitude
Exits shadow 06:36:48 13° 263° (W) 1,377 5.3 -10.4°
Maximum altitude 06:39:29 45° 336° (NNW) 591 3.7 -9.9°
Drops below altitude 10° 06:42:43 10° 52° (NE) 1,624 6.7 -9.4°
Sets 06:45:08 0° 59° (ENE) 2,682 7.9 -9.0°
